This is the latest recevied weather packets stored in our database for station/object KA1AL. If no packets are shown the sender has not sent any weather packets the latest 10 day(s).
| Time | Temp. | Humidity | Pressure | Rain* | Wind** | Luminosity | Snow |
|---|---|---|---|---|---|---|---|
| 1778184744 | 12.22° C | 62% | 1002.7 hPa | 0 mm | - | 202 W/m² | - |
| 1778184440 | 11.67° C | 58% | 1002.3 hPa | 0 mm | - | 165 W/m² | - |
| 1778184136 | 12.78° C | 59% | 1002.4 hPa | 0 mm | - | 170 W/m² | - |
| 1778183833 | 12.78° C | 60% | 1002.4 hPa | 0 mm | - | 406 W/m² | - |
| 1778183530 | 13.33° C | 58% | 1002.4 hPa | 0 mm | - | 164 W/m² | - |
| 1778183227 | 12.78° C | 58% | 1002.1 hPa | 0 mm | - | 438 W/m² | - |
| 1778182922 | 12.78° C | 58% | 1002.3 hPa | 0 mm | - | 191 W/m² | - |
| 1778182620 | 12.22° C | 59% | 1002.3 hPa | 0 mm | - | 436 W/m² | - |
| 1778182316 | 12.78° C | 60% | 1002.4 hPa | 0 mm | - | 180 W/m² | - |
| 1778182012 | 13.33° C | 59% | 1002.6 hPa | 0 mm | - | 729 W/m² | - |
| 1778181710 | 13.33° C | 59% | 1002.3 hPa | 0 mm | - | 219 W/m² | - |
| 1778181405 | 13.89° C | 58% | 1002.5 hPa | 0 mm | - | 628 W/m² | - |
| 1778181102 | 12.78° C | 61% | 1002.4 hPa | 0 mm | - | 632 W/m² | - |
| 1778180799 | 12.78° C | 62% | 1002.2 hPa | 0 mm | - | 200 W/m² | - |
| 1778180498 | 13.33° C | 64% | 1002.5 hPa | 0 mm | - | 756 W/m² | - |
| 1778180196 | 12.78° C | 70% | 1002.4 hPa | 0 mm | - | 275 W/m² | - |
| 1778179892 | 11.67° C | 70% | 1002.7 hPa | 0 mm | - | 187 W/m² | - |
| 1778179590 | 12.22° C | 69% | 1002.8 hPa | 0 mm | - | 162 W/m² | - |
| 1778179288 | 11.67° C | 72% | 1002.6 hPa | 0 mm | - | 753 W/m² | - |
| 1778178984 | 11.67° C | 70% | 1002.7 hPa | 0 mm | - | 394 W/m² | - |
| 1778178681 | 12.22° C | 68% | 1002.5 hPa | 0 mm | - | 163 W/m² | - |
| 1778178377 | 12.22° C | 67% | 1002.8 hPa | 0 mm | - | 224 W/m² | - |
| 1778178073 | 12.22° C | 68% | 1002.9 hPa | 0 mm | - | 380 W/m² | - |
| 1778177770 | 12.22° C | 72% | 1002.9 hPa | 0 mm | - | 769 W/m² | - |
| 1778177467 | 11.67° C | 71% | 1002.9 hPa | 0 mm | - | 253 W/m² | - |
* Rain latest hour (hover to see other rain measurements)
** Current wind speed in m/s (hover to see current wind gust speed)